Wind_Speed
85 86 85 85 83 81 80 78 77 76 74 73 71 68 65 63 62 61 59 57 55 53 53 53 53 53 51 50 47 45 43 40 38 38 43 47 50 48 46 43 40 43 49 53 52 48 49 48 48 48 45 44 42 41 41 40 41 42 42 40 39 37 36 35 35 35 32 29 29 28 26 25 23 22 21 19 18 15 13 13 13 12 12 12 10 9 9 8
83 86 87 86 85 84 81 79 78 77 74 72 70 67 64 63 61 61 60 57 56 56 55 55 53 53 52 49 46 46 44 40 39 39 42 48 52 50 47 45 40 43 49 54 53 48 50 49 49 50 47 45 44 43 42 41 42 41 40 39 37 36 37 37 36 35 32 30 30 29 27 26 24 23 21 19 17 15 14 13 13 13 13 12 11 10 9 9
80 84 87 87 86 85 82 80 78 77 75 71 69 68 65 63 62 61 60 57 57 57 57 56 55 55 53 48 46 47 45 42 40 41 43 47 51 50 48 46 42 44 50 54 53 49 50 50 49 49 47 45 44 44 45 44 42 40 39 39 37 37 38 37 36 34 32 30 30 29 27 25 24 22 20 18 16 15 13 13 13 14 14 12 11 11 10 10
79 82 85 86 85 85 82 80 78 76 74 71 69 68 66 63 62 61 60 58 57 58 58 58 57 57 54 50 49 49 46 45 43 42 44 45 47 48 48 47 44 45 50 54 53 50 50 51 50 49 46 45 45 46 47 45 42 41 41 40 39 41 41 39 36 35 33 31 30 29 27 25 23 22 21 19 17 15 14 14 14 14 14 12 12 11 11 10
77 82 84 83 83 83 82 80 77 75 72 70 69 68 66 63 62 60 59 58 58 58 59 59 58 57 54 52 51 49 47 47 46 45 46 46 47 48 49 49 47 45 51 55 54 52 51 51 51 50 47 45 45 47 49 46 43 42 42 41 42 44 42 38 36 36 35 32 31 30 29 27 25 24 22 20 18 16 15 14 14 14 13 13 12 12 12 12
71 80 84 81 79 79 79 79 76 73 70 69 69 68 66 64 62 60 59 59 59 59 60 59 56 56 54 53 52 50 49 48 46 47 49 49 48 49 49 50 49 47 51 55 56 55 53 53 52 52 49 47 46 48 49 47 45 43 41 41 42 41 38 37 38 37 36 34 33 31 30 28 27 25 22 21 18 16 15 14 14 14 15 16 14 13 13 13
65 72 82 82 77 75 74 76 75 71 69 68 68 68 66 64 62 62 61 60 60 60 60 59 57 56 55 53 54 51 51 49 46 48 51 50 49 49 49 49 50 49 50 54 57 58 56 53 53 53 50 48 48 48 51 48 45 43 43 44 43 41 39 39 41 39 37 35 34 32 30 29 28 25 23 21 18 16 17 16 16 16 18 17 15 15 15 14
68 65 73 80 77 74 71 72 74 70 68 68 67 67 66 64 62 62 63 60 60 62 61 61 59 57 55 54 54 52 50 48 47 49 50 50 50 48 48 48 50 50 51 54 56 58 58 54 53 53 51 50 49 50 53 49 44 44 46 47 46 43 41 42 42 40 38 36 34 33 32 31 28 26 24 22 19 19 19 18 17 18 18 16 14 14 14 14
76 70 65 73 75 73 70 69 71 68 66 68 67 66 65 64 62 63 66 61 59 63 60 59 59 58 58 55 55 52 49 47 46 48 48 48 48 47 45 45 48 50 51 54 55 56 57 55 53 53 54 53 52 54 54 48 44 47 48 47 46 44 43 43 43 41 39 37 36 35 33 31 29 27 26 23 21 21 20 18 19 18 17 16 15 14 13 13
76 79 68 67 68 68 68 68 69 68 67 68 66 66 64 63 62 61 67 63 57 61 58 56 57 57 57 56 55 51 48 48 46 47 46 44 44 43 42 41 44 47 49 52 54 53 55 57 54 53 56 55 55 55 53 50 47 49 49 46 46 45 44 44 43 42 41 39 38 37 35 33 31 29 27 23 22 22 21 20 20 18 18 18 16 15 14 14
67 80 74 67 66 64 66 68 69 68 67 67 65 65 64 63 62 59 65 65 58 59 55 54 54 52 52 53 53 49 48 48 46 46 43 40 40 39 39 39 40 43 46 49 50 50 53 57 55 53 55 55 54 54 54 53 51 50 49 47 47 47 45 45 45 44 43 40 39 37 35 35 32 28 26 24 24 24 22 21 20 19 19 18 17 16 16 15
59 72 74 69 69 66 67 69 69 69 67 67 65 65 64 63 63 59 61 63 61 61 56 51 49 48 51 52 49 44 43 45 44 44 42 40 40 38 37 39 40 41 43 45 45 47 51 55 55 52 55 56 54 55 56 55 52 50 49 48 49 48 47 46 45 44 43 40 39 37 36 35 30 27 27 25 26 25 22 22 20 19 19 18 18 17 16 15
57 66 73 69 69 67 68 70 70 70 67 67 66 64 63 62 62 60 59 60 62 65 59 51 46 46 51 51 46 40 36 40 42 42 41 40 40 37 35 35 37 40 41 42 43 44 48 53 54 53 54 57 57 56 57 56 54 51 50 50 50 50 49 47 46 44 43 41 40 39 37 33 29 30 30 27 27 25 23 22 20 19 19 19 19 18 17 15
61 65 72 69 69 68 68 72 71 70 68 67 67 64 62 62 60 58 58 59 62 65 60 52 46 44 46 47 45 40 34 37 39 40 39 38 38 36 33 31 32 36 39 41 42 43 46 50 53 54 54 56 58 58 57 57 55 52 52 53 53 52 50 48 47 46 44 43 42 40 36 32 32 34 32 28 27 26 24 23 21 20 20 19 19 18 17 17
69 66 72 70 71 70 69 72 71 70 69 67 67 65 63 61 59 57 56 59 62 63 59 52 47 44 43 44 43 38 34 34 35 36 35 35 36 34 33 32 30 31 33 38 42 43 44 46 50 53 54 56 59 60 59 58 56 54 55 56 55 53 51 49 48 47 46 44 42 40 37 35 37 35 32 30 29 28 26 24 22 21 21 20 20 19 18 18
74 64 71 73 72 73 72 73 72 71 69 68 68 66 64 60 59 57 55 59 63 62 59 53 49 45 43 43 40 33 33 34 34 33 33 33 34 33 32 32 31 31 31 33 38 42 43 44 46 49 52 57 62 63 61 59 56 56 58 57 55 54 52 50 49 48 46 45 43 41 38 38 38 34 32 31 30 29 27 24 23 22 22 21 21 20 20 19
80 62 70 75 74 76 75 74 74 71 70 70 69 68 65 62 59 58 57 60 63 62 59 54 49 46 46 45 38 32 33 34 35 34 33 33 33 33 32 32 31 31 31 31 33 37 41 43 44 46 50 57 63 65 63 60 57 58 60 58 55 55 53 51 49 48 46 45 44 41 39 39 37 33 32 31 29 30 28 25 24 23 23 22 22 21 20 20
86 66 73 78 76 79 77 76 75 73 72 71 69 69 67 63 60 59 60 61 63 63 60 57 53 50 50 46 37 32 31 32 35 35 33 33 32 32 32 32 32 31 31 32 32 33 38 41 44 46 50 56 63 65 65 62 58 60 61 58 55 55 54 51 49 47 45 44 43 41 39 39 36 33 33 32 31 31 30 28 25 24 23 22 22 21 21 20
84 62 71 79 77 80 78 77 76 74 74 72 71 71 68 65 61 61 63 63 63 64 62 61 57 51 47 43 37 33 32 33 36 35 34 34 33 32 31 31 32 31 31 31 31 31 34 39 44 46 48 54 61 64 65 62 58 59 58 55 55 56 55 51 47 44 43 44 43 41 39 38 36 35 34 34 34 33 32 29 26 25 24 23 23 22 21 21
87 59 65 80 80 81 79 77 76 75 74 74 73 72 70 67 65 66 66 63 59 59 59 58 56 51 48 43 38 35 34 37 39 37 35 34 35 34 32 31 31 31 31 30 30 30 31 35 40 44 48 55 62 64 65 62 59 58 56 55 56 55 51 49 46 42 42 43 43 42 40 39 39 38 37 37 37 34 32 29 26 25 25 24 23 22 22 22
85 59 64 81 81 80 79 76 76 74 73 73 72 70 68 65 64 63 61 59 57 57 58 56 53 53 53 48 43 38 37 39 43 41 37 36 37 37 35 34 33 32 31 31 31 29 29 30 34 44 53 59 62 63 62 61 59 58 58 57 56 53 50 49 47 42 42 43 42 42 42 41 41 40 39 39 37 33 31 30 27 27 26 25 24 23 23 23
76 64 70 83 82 80 79 76 75 73 72 72 70 67 66 63 62 59 55 55 58 59 60 58 54 55 54 50 45 41 41 43 45 44 41 40 40 38 37 36 35 33 32 32 32 31 29 28 32 45 57 61 62 62 61 60 60 60 60 57 53 51 51 50 47 43 43 44 43 44 45 43 41 41 41 40 37 34 33 32 30 29 27 25 24 24 24 24
74 73 79 84 82 80 78 76 74 73 72 71 68 67 65 63 62 60 55 53 55 59 62 60 57 57 55 50 45 43 44 46 47 45 43 42 40 37 37 35 34 33 33 33 32 32 30 29 34 46 58 61 62 61 60 59 59 59 58 55 50 49 50 49 46 45 44 44 45 45 46 44 43 43 42 40 37 35 34 33 32 31 28 25 25 25 25 24
70 76 83 83 82 80 78 76 75 73 71 68 67 66 64 62 60 58 55 52 52 55 58 59 59 59 57 52 46 44 45 47 47 44 43 42 39 37 35 33 32 32 32 32 32 32 31 31 37 47 57 62 62 60 57 57 58 57 55 54 51 50 51 49 46 46 45 45 46 45 46 46 44 43 41 38 37 37 36 35 34 32 29 27 26 25 25 24
67 76 82 82 82 80 78 77 75 72 69 67 66 65 62 61 59 56 54 53 52 52 54 56 58 59 57 53 47 45 45 47 47 44 42 39 37 36 34 32 31 31 31 30 31 32 32 33 38 46 55 62 63 60 56 56 57 56 54 54 52 51 51 50 48 48 46 46 46 45 47 46 42 42 40 38 38 38 37 36 34 33 31 29 27 25 25 25
68 78 81 81 81 79 79 77 74 71 68 65 64 62 60 59 58 56 54 53 53 53 52 51 53 56 55 51 47 46 47 47 46 43 41 38 36 35 33 32 32 30 30 30 32 33 33 34 38 45 54 61 63 61 57 56 55 54 53 53 52 52 51 49 48 48 47 47 47 46 47 46 43 42 41 40 40 39 37 36 35 33 32 30 27 26 26 26
72 79 80 81 79 78 77 74 72 70 67 64 63 61 59 58 57 55 54 55 54 53 52 50 51 53 53 49 46 47 49 47 44 42 40 38 37 36 33 34 33 30 30 31 33 34 34 35 38 45 53 60 64 62 59 57 54 53 53 52 51 51 50 48 47 48 49 50 49 48 48 47 46 44 43 41 40 39 39 37 34 33 32 31 29 28 28 28
75 79 79 79 76 74 72 70 70 68 64 63 62 60 59 58 57 56 57 58 57 54 51 50 50 52 54 52 48 47 48 45 43 42 41 39 38 37 35 34 32 31 31 32 33 34 34 36 39 45 51 58 63 63 60 56 54 53 53 51 48 48 48 48 48 49 51 52 51 49 48 50 49 45 43 43 41 40 39 37 34 32 32 32 30 30 29 29
77 80 79 77 75 74 71 68 67 66 65 63 62 60 59 59 59 60 60 60 58 54 52 50 49 51 54 54 52 51 49 46 44 43 41 40 40 38 36 34 33 33 33 32 33 33 35 36 39 44 50 55 61 62 60 56 54 53 52 49 46 45 46 47 48 49 51 54 54 51 49 51 51 47 45 45 42 40 38 36 35 34 33 33 31 31 30 29
78 80 79 77 77 75 72 69 66 64 65 64 62 61 61 62 63 64 64 62 58 54 52 51 50 51 52 52 52 52 52 50 48 45 43 42 39 37 35 34 34 34 33 33 35 35 35 36 39 43 47 52 58 62 59 55 54 53 52 50 46 44 45 47 49 50 52 56 55 53 51 52 53 51 48 47 43 39 37 36 37 36 34 33 32 31 30 30
78 78 78 78 76 74 72 70 67 64 64 64 63 64 66 66 66 67 65 61 56 54 53 51 50 50 50 49 49 50 52 53 50 48 47 44 42 39 38 37 36 36 35 35 36 36 37 38 40 41 44 50 57 61 60 57 55 54 52 52 48 46 46 47 50 51 53 57 56 54 53 54 56 54 50 49 45 39 36 36 37 37 34 33 33 32 31 31
79 79 79 78 75 73 71 69 66 66 66 63 63 66 68 67 68 67 63 59 58 56 52 51 50 48 48 48 48 49 52 53 52 51 48 46 45 43 42 41 39 37 37 37 37 38 39 40 40 41 43 49 55 60 60 59 59 56 54 53 51 50 49 49 52 53 54 56 55 54 55 56 60 56 50 48 45 39 37 36 36 36 35 34 35 34 33 33
80 80 80 79 76 73 70 67 67 69 67 64 65 65 66 68 69 64 60 59 58 54 50 49 48 47 48 50 50 49 50 51 52 52 50 47 45 44 42 40 37 35 35 36 37 39 40 41 42 42 44 47 53 59 61 62 62 59 56 54 52 52 53 52 52 54 54 54 55 54 55 57 59 56 51 47 44 41 39 37 36 36 36 36 36 36 36 35
80 81 81 79 76 72 69 68 68 68 67 67 68 67 66 68 65 61 60 59 56 53 51 50 49 48 50 49 49 48 48 50 52 52 52 50 48 45 43 41 37 35 35 35 37 38 39 40 40 42 44 46 51 56 60 61 58 55 53 51 50 50 52 51 51 52 53 53 53 54 55 57 57 55 51 46 44 43 41 39 38 37 36 36 36 37 37 36
81 82 82 79 76 71 69 69 68 67 68 69 69 69 69 67 62 60 60 57 56 54 52 51 50 50 50 50 49 48 48 49 51 52 52 50 47 45 43 42 39 38 38 38 38 39 39 39 38 39 41 43 47 52 57 59 56 54 53 52 50 49 50 50 49 50 52 52 53 54 56 57 55 53 51 47 45 45 44 42 41 39 37 36 36 37 38 38
82 83 82 78 74 71 70 70 68 67 68 68 68 70 68 63 59 59 57 54 54 55 54 54 53 52 52 51 50 48 47 47 49 51 50 49 48 46 44 42 40 39 38 37 37 38 40 39 39 39 41 42 44 48 54 58 58 58 57 55 54 50 48 48 49 50 51 53 55 55 56 56 54 53 53 49 47 46 44 43 42 41 40 38 37 38 39 39
82 83 82 77 73 71 71 70 68 68 67 67 68 67 63 58 57 57 56 54 54 54 54 55 55 53 52 50 48 47 46 47 49 48 48 48 47 45 44 43 40 39 38 37 36 36 37 38 38 39 40 42 43 45 49 54 57 59 58 56 53 50 47 47 48 49 50 53 57 58 58 56 54 55 54 51 48 46 44 43 42 43 42 40 39 40 40 39
81 82 81 77 75 73 72 71 70 69 68 68 67 64 60 59 59 58 56 55 55 55 54 54 53 52 51 50 48 48 48 48 48 47 47 48 45 42 43 44 41 39 39 39 37 35 35 37 38 38 40 42 43 44 46 49 53 56 57 56 52 49 49 49 49 51 52 53 57 60 61 59 57 56 53 50 48 46 45 44 44 43 43 42 41 41 40 40
82 82 81 79 77 75 73 72 71 70 70 70 68 64 62 61 59 57 55 55 55 54 53 53 52 50 50 49 49 49 48 47 47 47 47 46 44 43 43 43 43 41 41 41 40 37 36 38 39 38 39 42 43 45 46 47 50 53 55 56 54 51 51 50 50 51 52 53 55 59 61 62 60 56 52 49 48 47 44 44 44 44 44 44 44 43 42 42
81 82 83 81 79 77 75 74 72 72 73 70 66 64 63 62 60 58 58 57 56 55 53 52 51 50 49 49 48 47 46 46 47 46 46 46 45 45 45 45 45 43 43 43 42 40 38 38 40 40 41 43 45 46 46 46 46 48 51 53 55 54 54 53 52 52 52 53 55 58 61 63 61 57 52 49 48 47 45 44 43 44 44 45 46 45 45 45
81 83 84 83 82 79 78 77 76 75 73 69 66 66 66 66 64 63 62 59 57 56 53 52 51 50 50 50 49 47 46 46 46 46 46 45 45 45 45 46 46 45 46 46 45 43 40 39 41 43 44 44 45 45 46 46 45 45 46 48 50 51 52 53 54 54 54 55 56 59 62 63 61 58 54 50 49 49 48 47 46 46 46 46 47 47 47 47
81 83 84 84 84 82 80 79 78 76 74 72 71 70 69 66 65 65 64 62 59 57 54 53 52 51 51 51 50 47 45 46 46 46 44 43 44 45 46 46 46 47 48 47 46 45 42 41 42 44 45 46 47 47 47 47 46 46 46 46 46 48 49 51 53 55 54 55 55 56 60 64 61 59 57 54 52 51 49 47 46 46 46 47 47 48 49 49
81 82 82 83 83 83 82 81 80 79 77 75 74 72 70 68 67 66 65 63 61 59 57 56 54 53 52 52 51 49 46 45 45 44 42 43 44 45 46 46 46 48 48 47 47 46 44 45 45 45 45 46 47 48 49 49 49 49 49 49 50 50 50 50 51 51 52 53 53 53 60 65 61 58 57 56 55 53 50 47 45 45 46 47 48 48 49 50
79 81 81 82 82 82 81 82 81 80 80 77 75 74 72 71 69 68 66 64 62 60 59 58 57 55 54 53 53 50 47 46 46 45 43 44 44 44 45 45 46 47 47 46 46 46 47 49 48 48 48 47 48 50 51 50 50 51 52 52 53 52 52 52 51 52 53 53 53 53 59 61 57 56 56 55 54 52 51 49 47 46 47 47 48 48 48 49
77 82 83 82 83 82 82 82 81 79 80 79 77 75 74 72 71 69 67 65 62 60 59 59 58 56 55 55 55 52 49 47 48 48 46 45 45 45 45 44 45 46 45 45 46 47 49 51 50 50 50 50 48 45 43 43 46 50 52 53 55 54 54 54 53 53 55 55 54 55 55 51 49 51 53 52 52 50 50 51 49 47 47 47 48 48 48 48
78 85 85 84 85 84 83 82 80 79 78 78 77 76 75 74 72 70 68 66 63 61 61 60 59 57 56 56 56 55 52 49 50 50 48 47 47 47 46 45 47 47 46 46 47 48 51 52 51 51 50 48 45 42 41 41 43 45 45 47 51 53 54 54 54 55 55 55 56 57 54 47 43 48 52 52 52 50 49 50 48 46 46 47 48 47 47 46
78 84 83 82 83 84 84 84 83 81 79 77 76 76 76 75 73 71 70 67 63 61 61 62 60 58 58 57 57 56 54 52 53 52 51 50 50 48 47 47 47 48 47 48 49 50 53 53 52 51 50 47 46 48 49 47 45 43 41 41 43 45 48 51 54 54 54 57 58 57 56 50 43 47 53 54 53 52 49 48 47 46 46 48 48 46 45 44
71 74 75 74 72 73 75 77 78 79 78 78 76 75 76 75 74 73 70 67 65 63 63 63 62 60 58 56 56 56 55 54 54 54 53 52 52 52 51 50 50 50 50 51 52 52 53 54 52 52 51 50 51 54 54 51 49 48 46 45 43 43 45 47 48 47 48 54 55 52 55 54 47 48 54 55 55 54 51 51 51 50 48 47 47 46 43 41
62 64 68 70 67 65 64 66 71 77 79 78 77 77 77 75 73 72 70 68 67 65 64 63 62 61 59 57 56 56 56 54 53 54 54 54 53 53 53 53 53 52 52 53 54 54 55 54 53 54 54 53 54 57 56 54 54 53 51 50 48 48 48 48 48 46 45 47 45 43 47 51 48 48 51 53 56 56 54 54 54 51 47 45 45 44 42 39
60 59 61 64 63 63 65 68 72 76 79 80 80 78 77 75 74 72 71 69 68 66 64 62 61 60 59 58 57 57 56 53 51 51 53 54 54 54 54 54 53 52 52 52 54 55 55 55 55 56 55 56 56 56 56 57 57 56 54 53 52 51 51 51 50 49 48 48 43 39 43 43 39 40 45 48 51 54 54 53 51 47 45 44 44 44 41 40
58 57 56 56 57 59 65 68 70 73 77 79 79 77 75 74 73 72 71 70 67 65 62 60 59 59 58 59 58 56 53 52 51 51 51 51 50 50 50 50 49 49 48 48 50 52 53 55 56 56 57 58 56 56 57 58 58 59 58 56 54 53 52 51 50 49 50 50 45 43 44 39 30 31 37 41 46 50 50 49 47 44 43 44 45 45 43 43
58 56 56 55 54 56 61 64 67 71 72 70 70 72 72 72 72 73 73 72 69 67 64 61 60 60 59 58 55 53 53 53 52 51 51 51 50 48 47 47 47 46 45 45 46 47 48 51 53 54 57 57 56 57 57 57 61 63 59 53 52 51 51 52 52 51 50 50 48 46 44 36 31 32 35 37 43 47 47 47 46 45 44 45 46 47 47 48
Wind_Direction
219 218 220 222 222 223 223 222 221 222 223 222 220 220 219 218 217 216 215 216 216 216 218 218 219 221 223 223 220 218 221 224 228 231 229 223 220 220 218 217 217 214 211 207 207 207 202 204 211 211 209 209 208 203 199 201 205 206 207 207 206 205 205 205 205 206 203 202 207 208 208 209 209 210 210 211 216 220 222 222 224 225 224 220 218 219 216 215
221 219 220 222 223 224 224 224 223 223 224 223 221 220 219 218 217 215 214 214 215 214 216 218 218 220 222 221 218 218 220 223 226 228 229 226 221 220 218 218 218 213 209 207 207 206 202 205 212 211 208 208 209 203 198 201 206 207 207 206 206 205 206 207 207 206 203 204 209 210 209 210 210 211 211 213 216 220 223 224 224 225 227 223 217 218 218 216
222 222 221 222 223 224 225 225 224 224 224 223 221 219 219 218 216 215 213 213 215 214 215 216 217 219 221 220 217 218 220 222 224 225 227 226 222 220 219 219 219 213 209 208 208 207 205 207 212 213 209 209 210 204 197 201 205 206 207 206 205 206 207 209 209 207 204 206 210 211 212 212 212 213 214 216 219 224 227 227 225 226 227 224 218 218 218 216
223 224 223 223 224 224 225 225 225 225 224 223 222 219 218 217 216 215 212 212 214 214 213 215 216 218 220 219 218 219 221 224 223 222 225 226 224 223 222 221 220 215 209 208 209 210 209 209 211 211 210 211 213 207 199 199 202 204 205 203 203 206 207 207 208 208 205 206 210 212 214 214 214 216 216 216 220 224 228 229 227 228 228 225 220 219 219 215
224 225 224 223 224 225 225 226 226 225 223 223 222 219 217 216 215 214 211 211 213 213 213 215 216 218 218 218 219 220 221 225 224 222 224 226 227 226 224 221 219 216 212 209 209 210 211 210 212 212 212 214 216 210 199 197 201 203 204 203 205 208 207 207 208 209 207 207 209 211 213 214 214 216 215 216 218 222 227 230 230 228 226 225 221 218 218 214
221 225 225 224 225 225 225 225 225 225 223 222 222 220 217 215 214 212 209 211 212 212 213 215 216 217 218 216 219 221 221 224 224 223 225 226 228 228 224 220 218 217 215 211 209 210 211 210 213 216 216 217 217 209 197 197 200 201 203 205 209 210 208 209 211 211 209 208 209 211 212 213 215 215 214 215 216 222 227 228 227 223 219 220 217 213 215 214
212 221 225 224 225 225 224 224 224 224 222 220 221 220 217 214 214 211 208 211 211 211 213 215 216 217 217 216 218 221 221 222 223 225 226 226 228 229 225 220 219 218 217 215 211 210 211 209 211 216 218 219 218 207 195 197 200 199 202 205 209 209 207 210 212 212 210 209 210 211 212 213 214 214 214 215 214 221 225 222 221 219 220 220 215 212 212 212
211 216 223 225 225 224 222 221 222 221 219 219 219 218 217 214 214 211 208 210 211 210 212 214 215 216 215 216 219 222 222 222 223 226 226 226 228 229 226 221 220 220 218 218 215 213 212 210 211 214 216 219 217 205 195 196 199 200 203 205 208 207 206 210 211 211 210 210 211 212 213 213 213 212 213 213 212 220 223 220 218 218 223 224 220 217 214 213
211 216 220 222 222 222 220 219 218 218 217 217 217 217 216 213 213 211 208 210 210 209 213 215 214 215 215 216 219 222 223 222 223 225 225 225 227 227 225 221 219 220 218 218 217 215 213 210 212 213 214 216 213 204 195 194 199 202 204 206 209 208 207 209 210 210 210 210 212 213 213 213 212 211 212 210 212 220 221 220 219 216 220 221 218 216 214 215
206 211 215 214 216 217 216 216 216 215 215 215 215 215 215 213 213 212 209 211 210 207 212 216 215 214 214 216 218 219 221 222 222 223 222 221 224 225 225 222 218 218 218 218 218 217 214 213 213 213 212 212 211 204 194 193 199 203 205 206 209 210 209 210 210 209 210 210 211 213 212 212 211 211 212 210 214 220 219 219 218 215 216 217 215 211 211 212
202 204 208 209 212 214 212 213 213 213 214 214 214 213 213 212 212 211 210 211 211 208 210 215 213 209 211 216 217 215 217 220 220 221 221 222 225 227 227 225 221 219 216 216 218 217 214 215 215 213 212 211 209 202 194 193 199 203 205 206 209 210 209 210 210 209 210 210 212 213 212 213 211 210 211 212 217 220 218 219 217 214 214 215 214 211 211 211
205 202 202 207 211 211 208 209 211 211 212 212 211 212 212 212 211 210 210 211 210 211 212 212 206 200 204 211 212 208 212 217 216 218 221 225 228 230 229 227 225 223 219 216 217 216 214 215 215 212 212 211 206 199 194 195 198 202 205 207 210 210 209 209 210 210 210 210 212 213 214 214 211 210 212 214 219 219 218 221 217 214 214 214 215 213 213 213
212 204 197 201 207 207 205 206 208 208 209 209 209 210 211 211 210 210 210 209 210 212 215 213 204 198 200 204 201 195 205 214 213 216 219 223 228 230 229 227 226 226 224 219 217 216 214 214 213 211 212 212 205 197 195 197 198 201 205 207 210 210 210 210 210 211 210 211 212 213 214 212 210 213 213 213 219 219 219 222 218 215 213 213 215 214 214 213
209 204 196 196 202 204 203 204 206 206 206 207 207 209 210 210 209 209 209 208 208 212 215 214 209 204 199 195 191 190 201 209 211 215 217 220 224 226 228 229 227 226 225 222 219 217 215 214 213 210 211 214 208 198 196 198 198 200 205 207 209 210 210 209 210 211 210 212 212 213 213 211 212 214 212 212 219 219 219 222 219 215 213 213 215 215 215 213
204 202 197 194 199 202 202 202 204 204 204 204 206 207 209 209 208 208 208 206 207 211 214 212 210 207 200 190 186 190 201 207 209 214 217 219 221 223 227 231 232 231 229 226 221 219 218 216 214 212 211 213 210 201 196 198 199 200 205 207 209 210 209 209 211 211 211 212 212 213 211 212 215 215 213 214 218 220 219 220 219 216 214 214 215 216 215 215
202 201 200 193 196 200 199 201 202 201 201 202 204 206 207 207 207 206 208 207 207 211 212 210 208 206 200 188 184 193 206 211 212 214 218 219 220 222 226 231 235 236 236 233 226 221 218 217 216 215 213 211 209 202 197 197 199 201 205 207 208 210 209 209 211 211 211 212 212 212 211 214 217 215 217 217 219 222 220 219 219 217 216 214 215 216 216 216
202 200 201 194 194 196 197 198 199 199 199 200 202 205 206 205 206 205 207 208 207 210 212 209 205 202 199 188 186 201 211 215 216 216 219 219 219 222 224 229 233 235 236 238 234 226 220 218 217 217 215 211 206 200 196 196 199 203 205 207 207 210 210 209 212 213 212 212 213 213 212 215 217 215 218 219 220 225 224 220 220 219 218 216 216 217 217 217
203 199 199 195 193 193 194 196 197 197 197 199 201 204 205 203 204 203 206 209 207 208 210 208 203 199 198 192 190 205 215 219 218 218 219 216 217 219 221 224 227 230 232 235 237 232 225 222 220 218 216 212 205 199 196 195 199 204 206 206 207 210 211 210 211 213 213 214 215 214 213 216 216 214 218 220 219 225 226 221 220 221 221 219 219 219 218 217
203 198 199 196 192 192 193 194 195 196 196 197 200 203 203 201 200 201 205 209 208 209 210 210 209 204 201 198 197 205 215 222 221 219 219 217 217 217 218 220 223 226 228 231 235 234 230 226 223 221 218 214 207 200 196 196 200 206 207 207 209 211 211 210 210 212 214 215 216 215 214 216 217 215 217 221 220 222 225 222 220 222 222 221 221 220 220 218
202 196 198 196 192 190 191 192 194 196 196 197 199 201 202 201 200 202 206 208 209 211 212 213 214 210 204 202 207 210 214 221 223 222 221 221 220 220 219 219 222 225 228 231 233 234 234 230 228 225 220 213 206 198 195 197 201 206 207 207 211 212 211 211 211 213 215 216 216 216 215 215 217 217 216 220 221 220 224 224 221 223 223 222 221 220 221 220
202 193 195 196 191 190 190 192 193 195 197 198 200 202 203 203 204 206 210 211 211 211 211 210 211 211 207 206 210 213 216 220 223 224 223 224 224 223 224 224 226 229 231 232 232 234 235 234 231 225 215 206 200 196 196 199 202 206 208 208 212 212 210 211 211 212 215 216 216 216 215 214 217 219 218 220 222 220 223 225 222 223 224 223 222 222 222 222
196 189 196 195 190 189 189 191 193 195 197 198 199 200 202 205 206 208 211 213 213 213 212 209 208 210 210 210 210 211 217 220 222 225 226 226 226 226 228 228 230 232 232 233 234 236 236 235 231 222 211 202 197 196 198 201 203 207 209 208 212 212 209 211 211 211 214 216 216 217 216 215 216 220 220 220 221 221 221 224 224 224 225 224 223 225 225 227
192 191 196 192 188 188 188 190 193 194 196 197 198 199 201 204 206 208 211 213 214 215 214 211 209 210 210 211 211 211 217 221 222 226 229 229 228 228 230 230 231 232 233 234 234 236 237 236 230 219 209 200 196 197 200 203 205 209 211 210 212 213 211 212 211 211 214 216 217 218 217 216 216 219 221 220 221 222 221 223 226 226 226 226 226 227 229 231
199 197 194 189 186 187 187 190 192 193 195 196 197 199 201 203 205 207 210 211 213 215 216 213 209 209 208 209 211 212 216 220 222 226 229 230 230 229 231 232 234 233 234 235 235 235 236 234 228 220 211 202 197 198 202 206 208 211 211 210 212 213 212 213 212 212 215 217 219 220 219 217 217 220 222 222 222 224 222 222 226 228 228 228 229 229 231 234
203 197 191 187 185 186 187 190 191 192 193 194 196 198 200 202 203 204 206 208 210 212 215 214 210 208 206 206 209 210 215 218 220 223 226 228 229 229 230 232 234 234 234 235 235 236 235 232 228 222 213 204 199 198 202 207 209 211 211 210 212 213 212 213 213 214 216 219 220 223 222 217 217 222 222 222 224 225 225 223 225 229 231 230 231 232 235 236
198 193 189 186 185 186 188 190 190 191 192 193 196 197 198 200 202 202 203 206 208 209 210 211 211 210 208 207 207 207 212 216 217 220 222 224 226 227 228 229 230 232 234 233 233 234 234 232 229 224 214 205 201 199 201 207 209 211 211 211 214 214 213 213 214 216 217 220 221 224 225 219 217 221 222 222 224 225 226 225 224 228 232 232 233 234 237 239
192 189 187 185 185 186 188 189 190 191 192 193 196 197 198 200 201 201 202 205 207 208 208 207 207 209 211 211 209 209 212 214 216 218 219 221 223 224 225 227 228 230 231 231 231 231 233 231 227 224 216 208 204 200 202 206 209 210 210 211 215 216 213 213 216 218 219 221 222 223 225 222 217 219 223 223 224 226 227 228 226 228 232 234 235 235 237 240
189 187 186 185 185 186 188 190 191 192 192 194 197 197 198 199 199 200 202 206 206 205 207 206 204 206 209 211 211 213 214 215 216 218 219 220 222 222 224 225 227 228 228 230 232 232 233 232 227 223 218 212 208 203 202 206 209 210 210 212 216 218 216 215 218 220 220 222 223 223 225 225 219 217 223 225 224 226 227 229 230 229 232 235 236 238 238 240
189 186 184 184 185 186 188 189 191 192 191 194 196 196 197 198 198 200 203 207 206 204 205 205 204 205 207 209 210 213 215 217 218 219 221 222 222 222 223 224 225 226 225 226 229 231 232 233 228 223 219 216 211 206 204 207 209 210 211 212 215 220 219 218 220 221 222 223 223 222 224 227 222 217 222 225 224 226 227 229 232 231 232 235 237 240 242 243
189 185 183 184 186 187 187 187 189 190 191 193 194 194 196 197 198 200 203 205 204 203 204 203 203 204 206 208 210 212 214 217 219 219 220 222 223 223 223 224 226 228 226 224 226 227 227 229 228 225 223 219 213 208 207 209 210 211 212 213 214 219 221 221 222 223 224 224 223 223 224 228 226 219 220 225 225 225 227 229 232 233 234 237 239 241 244 247
188 184 183 186 188 188 188 188 188 188 192 193 192 193 195 196 199 201 202 204 203 202 203 202 202 203 205 208 210 212 214 216 218 220 221 221 222 222 222 224 225 227 227 225 226 226 224 225 227 227 226 221 215 211 210 210 212 212 214 214 214 218 221 222 223 224 225 224 223 224 224 227 229 222 220 226 226 224 227 231 234 235 237 240 242 243 244 247
186 184 185 187 188 188 189 188 187 189 193 193 193 195 196 196 199 201 201 202 203 202 202 203 204 204 206 207 210 213 214 216 217 219 221 222 224 224 224 226 227 228 229 228 227 226 224 224 226 227 226 223 218 214 212 212 213 214 215 215 215 218 222 223 225 225 225 224 224 226 226 227 229 226 224 227 230 227 228 233 236 237 239 241 244 245 245 246
185 185 186 188 188 188 188 187 187 191 192 192 194 197 197 198 200 200 201 202 204 203 202 205 206 206 207 207 208 212 214 216 218 219 220 221 223 225 227 228 229 232 235 235 232 228 225 224 225 226 225 223 221 217 215 214 214 216 217 217 217 220 223 224 226 227 226 226 226 227 229 228 229 230 228 229 233 233 231 233 237 239 240 242 245 247 247 247
185 186 187 188 188 187 187 187 189 192 192 192 195 196 198 201 200 200 202 203 204 203 202 204 205 205 207 209 210 211 212 215 216 219 221 221 221 223 225 227 227 230 233 235 236 236 234 233 231 229 227 225 222 220 218 217 217 219 221 221 221 223 227 228 230 231 230 230 231 231 232 231 229 232 233 231 234 237 236 235 237 239 241 243 246 248 249 250
185 186 188 189 187 186 187 189 190 192 194 195 195 196 199 201 201 202 205 205 204 204 202 203 205 205 206 208 210 211 213 215 215 217 220 223 225 226 227 228 227 228 231 231 232 233 234 236 236 235 234 231 227 224 221 219 219 221 222 223 223 225 229 231 233 234 234 234 235 234 233 232 231 234 236 234 233 235 238 239 239 241 242 244 247 249 250 252
186 187 189 189 187 187 189 190 191 192 196 197 197 199 200 202 203 205 208 208 208 207 203 203 204 205 206 207 208 209 212 215 217 218 220 222 225 226 228 230 230 231 235 237 237 234 232 232 230 229 232 232 230 228 225 222 222 222 223 225 225 225 230 233 234 235 237 238 237 235 234 234 234 236 237 236 234 234 238 242 244 245 246 248 249 249 251 252
187 188 188 188 188 189 191 191 192 194 196 198 200 202 202 203 205 206 207 207 209 209 206 206 207 207 208 209 210 210 211 214 216 219 222 222 224 226 226 227 230 232 236 239 241 239 237 237 233 228 229 231 231 231 228 226 225 225 226 227 227 228 230 232 235 236 237 239 238 236 235 235 236 237 237 238 239 238 240 244 247 249 250 252 252 252 252 254
189 189 189 188 190 192 193 193 194 196 197 199 201 203 203 204 205 206 208 208 209 209 208 209 211 211 211 211 212 212 213 215 217 219 221 222 225 228 227 226 227 228 232 236 238 237 235 236 235 232 231 231 231 232 232 231 229 229 229 229 230 231 230 231 234 236 237 238 238 237 236 236 236 237 239 242 243 244 244 246 248 250 252 254 255 255 256 257
189 188 189 190 191 193 194 195 196 197 199 200 201 202 204 206 206 207 209 209 210 211 210 209 211 213 215 215 215 214 214 216 219 221 223 223 224 226 225 227 227 226 228 233 236 234 231 230 233 232 229 229 230 232 234 234 233 233 232 231 232 233 233 233 234 237 239 240 240 240 239 237 236 237 241 244 245 247 247 248 249 251 253 255 256 257 259 259
189 189 190 191 193 194 195 196 197 199 200 202 202 202 203 206 207 207 209 210 211 212 212 210 211 212 215 218 219 219 217 218 220 221 223 224 225 225 223 224 226 224 226 231 234 233 230 228 231 231 229 228 229 232 234 235 235 236 236 236 236 236 237 236 236 238 240 242 242 242 242 240 238 239 242 245 248 250 250 250 250 251 253 254 255 257 259 260
190 191 192 193 194 196 197 197 199 201 202 202 203 205 205 205 205 207 209 210 211 213 213 212 212 213 215 217 219 220 219 220 222 223 224 225 226 226 224 223 224 223 224 228 232 232 230 227 229 231 231 231 231 232 233 234 234 236 237 239 240 240 241 241 241 240 241 243 245 245 245 243 241 242 243 245 249 252 252 252 251 252 252 253 255 256 258 260
192 193 194 195 196 197 198 199 201 202 203 203 204 206 207 207 207 208 209 209 210 212 213 213 212 214 216 217 219 220 220 222 224 224 225 227 228 228 228 226 226 225 223 225 230 232 231 230 229 231 232 232 232 232 232 233 234 234 235 236 238 239 241 242 243 243 242 244 245 247 247 243 242 244 244 245 247 250 252 253 253 254 255 255 256 257 258 260
194 194 196 197 198 199 200 201 202 204 205 205 205 207 207 208 209 210 210 210 210 210 211 212 212 213 215 217 218 219 220 222 225 225 226 229 229 229 229 228 228 228 226 226 229 231 231 231 231 233 234 234 233 233 233 233 233 234 235 236 236 238 240 241 243 244 243 243 244 246 248 245 243 245 247 247 248 250 252 254 255 257 258 257 257 257 258 259
197 196 197 199 200 202 202 203 204 205 206 206 206 208 208 209 211 211 211 211 211 212 213 212 212 212 214 217 218 219 218 219 222 223 224 227 229 229 230 230 229 230 230 230 231 233 232 231 232 233 234 234 234 233 232 234 235 236 236 236 236 237 238 238 240 242 243 244 244 245 249 250 248 249 250 250 251 252 253 254 255 256 257 257 256 256 257 257
199 197 198 200 202 203 204 205 206 207 207 207 207 209 209 210 212 212 213 213 212 213 215 215 214 213 214 216 217 218 218 218 220 221 221 223 226 227 229 231 230 230 231 232 233 233 233 234 234 235 236 237 237 237 240 243 243 241 239 238 238 238 238 238 239 241 242 244 245 245 250 255 254 252 252 252 251 252 252 253 254 254 255 255 255 255 255 256
201 199 199 200 202 203 204 205 207 210 211 210 210 210 211 212 213 213 214 215 214 213 215 216 216 215 215 216 217 217 217 217 218 220 220 221 223 225 226 228 229 229 228 229 231 232 233 234 235 237 240 243 245 249 252 253 250 248 248 247 246 245 243 241 240 242 244 247 247 247 251 256 255 252 252 251 250 249 249 250 250 251 252 253 255 255 256 256
204 203 204 204 204 204 205 206 207 209 211 213 213 213 214 214 214 215 216 215 215 215 216 217 217 217 216 216 217 217 217 217 218 219 219 219 221 224 225 226 228 228 227 227 229 230 232 233 235 237 239 241 244 246 248 249 249 249 249 249 250 250 250 249 247 247 248 249 249 249 252 255 255 252 252 251 250 249 248 248 249 249 251 253 255 257 258 257
206 208 209 211 212 211 210 210 211 211 212 213 215 217 218 217 216 217 217 216 215 215 216 217 217 218 218 217 218 219 219 219 218 218 220 221 220 222 224 225 226 226 226 226 227 229 231 234 235 236 237 238 240 242 244 245 245 244 242 242 243 246 249 252 253 252 251 252 253 254 255 255 256 254 253 253 253 251 249 249 250 250 249 251 254 256 257 257
208 211 211 213 216 217 217 215 213 213 213 213 215 217 219 220 220 219 219 218 217 216 216 216 217 218 219 219 219 221 221 221 220 220 221 222 222 223 225 226 226 226 225 225 226 227 229 232 234 235 236 236 237 239 243 244 244 243 242 241 241 242 244 247 250 251 252 254 256 257 256 256 256 256 256 256 256 256 254 252 251 250 248 249 251 253 255 257
210 212 213 214 214 216 217 217 214 213 214 214 215 217 218 220 221 221 222 221 220 219 218 218 219 220 221 221 220 221 222 222 223 225 225 225 225 225 226 228 228 228 227 226 226 226 227 229 231 233 234 235 235 237 241 243 244 244 244 243 243 243 244 246 248 250 252 255 257 259 260 258 257 258 260 260 260 261 260 257 253 250 249 249 251 253 255 256
208 211 212 214 214 213 215 217 217 217 217 216 216 217 219 220 221 222 223 223 223 223 221 222 223 223 223 223 222 222 223 224 224 226 227 229 230 231 231 232 232 232 231 230 230 229 229 230 231 232 234 236 237 237 239 241 244 244 243 243 244 245 247 249 252 253 255 258 259 260 261 261 262 265 264 262 262 263 261 259 256 252 249 249 251 253 255 255
205 209 210 211 212 212 213 215 217 219 220 221 220 220 221 221 221 222 222 222 223 223 223 224 225 226 225 224 224 223 224 226 227 227 228 228 229 230 231 232 233 234 234 234 234 234 233 234 235 236 238 240 240 240 240 241 242 243 244 248 249 251 252 253 253 253 255 257 258 259 261 263 266 267 262 257 257 259 259 258 256 253 250 249 252 254 255 256
Height
5659 5664 5669 5673 5679 5684 5690 5696 5701 5706 5710 5714 5719 5723 5727 5731 5735 5739 5744 5749 5752 5756 5759 5762 5765 5767 5768 5772 5776 5779 5781 5784 5786 5789 5792 5794 5795 5797 5800 5803 5805 5806 5808 5810 5813 5815 5818 5822 5824 5826 5829 5832 5836 5838 5842 5845 5846 5848 5850 5854 5857 5860 5862 5864 5864 5866 5869 5872 5873 5875 5876 5877 5878 5879 5880 5881 5882 5883 5884 5885 5886 5887 5888 5889 5890 5891 5892 5893
5652 5657 5663 5667 5673 5678 5683 5690 5695 5700 5705 5710 5715 5719 5723 5727 5731 5735 5739 5744 5748 5752 5755 5758 5761 5763 5765 5769 5773 5776 5778 5781 5784 5787 5789 5790 5792 5795 5797 5799 5801 5803 5805 5807 5810 5813 5815 5818 5821 5824 5827 5830 5833 5836 5839 5842 5843 5846 5850 5854 5857 5859 5860 5861 5862 5865 5869 5871 5872 5874 5875 5876 5877 5878 5879 5880 5881 5882 5883 5884 5885 5886 5887 5888 5889 5890 5891 5892
5646 5650 5655 5661 5666 5672 5678 5684 5689 5695 5700 5705 5710 5715 5719 5723 5727 5731 5735 5740 5744 5748 5752 5755 5758 5759 5762 5766 5770 5772 5776 5778 5781 5784 5785 5786 5789 5791 5793 5795 5798 5800 5802 5805 5807 5810 5813 5816 5819 5822 5825 5827 5830 5833 5836 5838 5841 5846 5849 5853 5856 5857 5858 5860 5862 5865 5868 5869 5870 5872 5874 5875 5876 5877 5878 5879 5880 5881 5883 5884 5885 5885 5886 5888 5889 5889 5890 5891
5640 5644 5648 5654 5660 5666 5672 5678 5683 5689 5695 5701 5706 5710 5714 5718 5723 5727 5731 5736 5741 5744 5748 5751 5754 5756 5759 5763 5765 5768 5772 5775 5778 5780 5780 5782 5785 5787 5789 5791 5794 5796 5799 5802 5805 5808 5811 5814 5816 5819 5822 5825 5828 5830 5832 5836 5840 5843 5846 5850 5853 5852 5854 5857 5861 5863 5866 5867 5869 5871 5873 5874 5876 5876 5877 5878 5879 5880 5882 5883 5884 5885 5886 5887 5888 5889 5890 5891
5634 5637 5642 5649 5654 5660 5667 5672 5678 5684 5690 5696 5701 5705 5710 5714 5719 5724 5728 5732 5737 5740 5743 5746 5750 5752 5756 5759 5761 5765 5768 5771 5775 5776 5775 5778 5781 5782 5785 5787 5789 5792 5795 5798 5802 5806 5808 5811 5814 5816 5819 5822 5825 5827 5831 5834 5837 5841 5845 5848 5848 5849 5853 5857 5859 5861 5863 5865 5867 5869 5871 5873 5874 5875 5876 5877 5878 5880 5881 5882 5883 5884 5885 5886 5887 5888 5889 5890
5628 5631 5636 5643 5649 5655 5661 5667 5673 5680 5686 5692 5696 5701 5705 5710 5715 5720 5724 5728 5732 5736 5739 5742 5746 5749 5753 5755 5758 5762 5764 5767 5771 5771 5772 5775 5777 5778 5780 5783 5786 5788 5791 5794 5798 5803 5805 5808 5811 5814 5816 5819 5822 5825 5829 5832 5834 5839 5844 5846 5847 5849 5855 5858 5858 5860 5861 5863 5865 5867 5869 5871 5872 5874 5875 5876 5878 5879 5880 5881 5882 5884 5884 5884 5886 5887 5888 5889
5622 5625 5630 5637 5643 5649 5656 5662 5668 5675 5681 5687 5692 5696 5701 5706 5711 5716 5719 5724 5729 5733 5736 5739 5742 5746 5749 5752 5754 5757 5760 5764 5767 5767 5768 5771 5773 5775 5777 5780 5782 5784 5787 5790 5795 5798 5801 5805 5808 5811 5814 5816 5820 5822 5826 5829 5833 5838 5841 5842 5844 5848 5853 5855 5856 5858 5859 5862 5863 5865 5867 5869 5871 5873 5874 5875 5877 5878 5879 5880 5881 5882 5883 5883 5884 5885 5887 5888
5617 5621 5625 5631 5638 5644 5650 5657 5663 5670 5676 5682 5687 5692 5697 5702 5707 5711 5715 5720 5725 5728 5732 5735 5739 5742 5746 5748 5750 5753 5757 5761 5763 5764 5766 5768 5770 5772 5774 5776 5778 5781 5784 5787 5790 5794 5797 5801 5805 5807 5810 5814 5817 5819 5821 5827 5832 5835 5837 5839 5841 5846 5850 5851 5853 5855 5857 5860 5862 5864 5865 5867 5869 5872 5872 5874 5876 5877 5877 5879 5879 5881 5881 5882 5884 5885 5886 5887
5610 5617 5621 5625 5631 5638 5645 5652 5658 5665 5672 5677 5683 5688 5694 5698 5702 5706 5711 5716 5720 5724 5728 5731 5735 5738 5741 5744 5746 5750 5755 5757 5759 5760 5763 5765 5766 5768 5770 5772 5774 5777 5780 5783 5786 5789 5793 5797 5801 5804 5806 5810 5813 5815 5819 5825 5830 5832 5834 5837 5841 5845 5847 5848 5851 5853 5855 5857 5860 5861 5863 5866 5868 5869 5871 5873 5875 5875 5876 5877 5878 5879 5880 5881 5883 5884 5885 5886
5600 5608 5615 5618 5625 5633 5640 5647 5653 5660 5666 5673 5679 5684 5689 5694 5698 5703 5707 5712 5715 5719 5723 5727 5730 5733 5736 5738 5742 5748 5751 5752 5755 5757 5760 5761 5763 5765 5767 5768 5771 5773 5776 5779 5782 5786 5790 5794 5797 5800 5802 5805 5807 5811 5816 5821 5825 5829 5832 5836 5840 5843 5845 5846 5849 5851 5852 5854 5856 5859 5861 5864 5865 5868 5870 5872 5873 5874 5875 5876 5877 5878 5879 5880 5882 5883 5884 5885
5593 5599 5606 5611 5618 5627 5634 5641 5648 5655 5661 5669 5675 5680 5685 5689 5694 5699 5703 5707 5711 5715 5719 5723 5726 5728 5731 5734 5740 5746 5747 5748 5752 5754 5756 5758 5759 5761 5763 5765 5767 5770 5772 5776 5779 5782 5787 5789 5792 5796 5799 5802 5805 5809 5813 5816 5820 5825 5830 5835 5836 5839 5841 5843 5845 5847 5849 5852 5854 5857 5859 5861 5864 5867 5869 5870 5871 5872 5873 5874 5875 5877 5878 5879 5880 5881 5883 5884
5588 5592 5598 5604 5612 5621 5628 5636 5643 5649 5657 5665 5672 5676 5681 5685 5690 5695 5698 5703 5707 5711 5715 5719 5721 5723 5726 5731 5739 5744 5745 5745 5748 5750 5753 5754 5756 5758 5760 5762 5764 5766 5769 5772 5775 5779 5782 5784 5788 5792 5795 5798 5802 5807 5811 5813 5817 5823 5828 5831 5833 5835 5838 5840 5842 5845 5847 5850 5852 5855 5857 5859 5863 5866 5867 5868 5869 5870 5872 5873 5874 5875 5876 5877 5879 5880 5881 5882
5583 5588 5591 5596 5606 5615 5622 5630 5637 5644 5653 5661 5667 5672 5677 5682 5686 5690 5694 5699 5703 5707 5712 5715 5717 5719 5723 5730 5737 5740 5740 5740 5743 5747 5749 5751 5753 5756 5758 5759 5761 5763 5766 5769 5772 5775 5778 5780 5784 5788 5792 5795 5798 5803 5807 5810 5814 5820 5824 5827 5829 5832 5834 5837 5840 5842 5845 5847 5849 5852 5855 5859 5863 5863 5864 5865 5866 5868 5870 5871 5873 5874 5875 5876 5877 5878 5879 5881
5577 5583 5586 5591 5600 5609 5617 5625 5632 5639 5648 5656 5663 5669 5673 5678 5682 5687 5691 5696 5700 5703 5707 5711 5713 5716 5721 5727 5732 5734 5734 5736 5740 5743 5746 5748 5751 5753 5755 5757 5758 5760 5763 5765 5768 5771 5774 5777 5780 5783 5787 5792 5795 5799 5804 5807 5811 5816 5820 5822 5825 5827 5831 5835 5837 5839 5842 5844 5847 5850 5854 5858 5859 5858 5861 5863 5865 5867 5868 5869 5871 5873 5874 5875 5876 5877 5878 5879
5571 5577 5581 5586 5593 5603 5612 5620 5628 5635 5643 5651 5658 5664 5669 5674 5679 5683 5688 5692 5696 5700 5704 5709 5711 5714 5719 5723 5727 5729 5731 5733 5737 5739 5742 5745 5748 5750 5752 5754 5756 5758 5760 5762 5765 5768 5771 5774 5776 5779 5783 5788 5792 5795 5799 5804 5808 5812 5815 5817 5821 5824 5828 5832 5834 5836 5839 5842 5845 5848 5852 5855 5854 5856 5860 5862 5863 5864 5866 5867 5869 5871 5872 5873 5874 5876 5877 5878
5565 5572 5577 5581 5588 5597 5607 5616 5624 5631 5639 5646 5654 5660 5666 5671 5675 5680 5685 5688 5692 5695 5699 5704 5708 5712 5716 5720 5722 5725 5729 5731 5733 5736 5740 5742 5745 5747 5750 5752 5754 5755 5757 5759 5762 5765 5768 5771 5774 5776 5779 5783 5787 5791 5795 5800 5805 5809 5811 5814 5818 5821 5825 5828 5831 5833 5836 5839 5842 5846 5850 5851 5852 5856 5858 5860 5862 5862 5864 5866 5867 5869 5870 5872 5873 5874 5875 5876
5557 5568 5573 5577 5583 5592 5601 5611 5619 5627 5634 5642 5649 5656 5661 5666 5670 5676 5679 5681 5686 5690 5695 5701 5705 5709 5712 5715 5718 5722 5726 5728 5730 5734 5736 5739 5742 5744 5747 5749 5751 5753 5755 5757 5759 5762 5764 5767 5770 5773 5775 5779 5782 5786 5791 5796 5802 5805 5807 5810 5815 5819 5822 5826 5828 5831 5835 5838 5840 5844 5847 5848 5851 5855 5856 5858 5860 5861 5863 5864 5865 5867 5868 5870 5871 5872 5874 5875
5553 5565 5569 5572 5578 5587 5596 5605 5614 5622 5629 5637 5646 5651 5656 5660 5665 5671 5673 5675 5680 5684 5688 5693 5698 5702 5707 5713 5717 5720 5724 5725 5727 5730 5733 5736 5738 5741 5744 5746 5748 5750 5752 5755 5757 5759 5761 5763 5766 5768 5772 5776 5779 5783 5788 5793 5799 5801 5804 5809 5813 5815 5819 5823 5826 5830 5834 5836 5839 5842 5845 5846 5849 5853 5854 5856 5858 5859 5860 5862 5863 5865 5866 5868 5869 5871 5872 5873
5550 5562 5566 5568 5574 5582 5591 5600 5609 5617 5623 5631 5639 5643 5648 5654 5660 5665 5666 5670 5676 5681 5687 5693 5699 5706 5712 5715 5715 5717 5720 5721 5723 5726 5729 5732 5735 5738 5740 5743 5746 5748 5750 5752 5755 5756 5758 5760 5762 5765 5770 5774 5777 5781 5786 5791 5795 5798 5803 5809 5811 5812 5816 5821 5825 5829 5832 5835 5837 5840 5843 5845 5847 5850 5851 5852 5854 5855 5857 5860 5862 5863 5865 5866 5868 5869 5870 5871
5544 5556 5561 5565 5570 5578 5586 5595 5604 5612 5618 5625 5631 5635 5640 5647 5653 5656 5661 5670 5679 5685 5692 5699 5704 5708 5711 5712 5712 5714 5717 5718 5719 5722 5726 5729 5731 5734 5737 5740 5743 5746 5748 5750 5752 5754 5756 5758 5761 5765 5769 5771 5774 5778 5783 5788 5792 5796 5802 5806 5807 5810 5816 5821 5825 5828 5830 5832 5834 5837 5840 5842 5843 5845 5847 5848 5850 5853 5856 5858 5860 5861 5863 5864 5865 5867 5868 5869
5543 5554 5557 5560 5567 5574 5583 5592 5601 5609 5617 5623 5629 5636 5643 5650 5656 5661 5669 5677 5681 5684 5690 5695 5698 5700 5703 5706 5708 5712 5714 5715 5715 5719 5723 5726 5729 5732 5735 5738 5741 5744 5746 5748 5750 5752 5754 5757 5761 5764 5765 5767 5770 5776 5781 5785 5790 5793 5796 5800 5803 5807 5813 5817 5821 5824 5826 5828 5831 5833 5835 5838 5839 5841 5843 5844 5847 5852 5854 5856 5858 5859 5860 5862 5863 5864 5865 5866
5543 5550 5552 5556 5563 5571 5580 5590 5599 5607 5614 5620 5628 5637 5646 5653 5660 5667 5674 5677 5677 5679 5683 5688 5691 5694 5699 5702 5704 5709 5711 5711 5713 5717 5721 5723 5727 5730 5733 5736 5739 5742 5744 5745 5748 5750 5752 5755 5758 5760 5761 5764 5768 5773 5778 5782 5786 5788 5792 5798 5802 5806 5810 5813 5817 5821 5823 5825 5827 5828 5831 5834 5837 5838 5839 5841 5846 5850 5852 5854 5856 5857 5858 5860 5862 5862 5863 5864
5538 5543 5547 5553 5561 5569 5578 5588 5596 5604 5610 5618 5627 5636 5643 5649 5655 5662 5667 5670 5672 5674 5677 5682 5686 5690 5695 5699 5702 5706 5708 5709 5712 5716 5719 5722 5726 5729 5731 5734 5736 5739 5741 5743 5746 5748 5750 5753 5755 5756 5758 5761 5765 5769 5774 5778 5783 5786 5791 5798 5801 5804 5808 5811 5815 5818 5819 5821 5823 5825 5827 5831 5833 5834 5836 5839 5844 5847 5849 5851 5853 5854 5856 5858 5859 5860 5861 5862
5533 5539 5544 5550 5558 5566 5576 5585 5592 5600 5609 5618 5625 5632 5639 5644 5650 5656 5659 5662 5666 5670 5674 5680 5683 5685 5691 5697 5701 5703 5705 5707 5711 5714 5717 5721 5725 5727 5729 5732 5734 5736 5739 5742 5744 5745 5748 5751 5753 5754 5755 5758 5761 5766 5771 5776 5780 5784 5789 5795 5798 5801 5804 5808 5812 5814 5816 5818 5820 5822 5824 5827 5831 5832 5835 5839 5842 5844 5846 5848 5850 5852 5854 5855 5856 5858 5859 5860
5529 5535 5542 5548 5555 5564 5573 5580 5588 5598 5607 5613 5620 5628 5635 5641 5646 5650 5653 5657 5661 5665 5670 5676 5678 5682 5688 5693 5696 5699 5701 5703 5707 5712 5716 5719 5722 5725 5728 5730 5732 5735 5737 5739 5741 5743 5746 5749 5751 5752 5754 5756 5759 5764 5769 5773 5777 5782 5786 5791 5794 5797 5801 5805 5808 5810 5813 5816 5819 5820 5821 5825 5829 5831 5834 5837 5838 5840 5843 5846 5848 5850 5851 5853 5854 5856 5857 5858
5525 5532 5540 5547 5553 5562 5569 5576 5587 5596 5602 5609 5617 5626 5632 5636 5640 5645 5649 5653 5655 5659 5665 5671 5677 5682 5686 5688 5690 5694 5696 5699 5705 5710 5713 5717 5719 5723 5726 5727 5730 5733 5735 5737 5738 5740 5743 5746 5749 5750 5752 5754 5757 5762 5766 5770 5774 5779 5784 5788 5791 5794 5798 5802 5805 5808 5810 5813 5816 5817 5818 5823 5827 5828 5830 5833 5834 5837 5840 5843 5845 5847 5848 5850 5852 5854 5855 5855
5523 5531 5539 5545 5552 5560 5568 5578 5586 5593 5601 5609 5615 5622 5627 5631 5636 5641 5645 5646 5648 5654 5660 5666 5673 5679 5684 5687 5689 5692 5694 5699 5704 5707 5711 5714 5717 5720 5723 5725 5728 5730 5732 5734 5735 5738 5740 5743 5746 5748 5750 5753 5755 5760 5764 5767 5771 5776 5781 5785 5788 5791 5796 5800 5802 5804 5807 5809 5811 5813 5815 5818 5822 5825 5827 5829 5832 5835 5838 5840 5843 5845 5846 5848 5850 5851 5852 5853
5522 5530 5538 5546 5555 5564 5572 5580 5586 5593 5602 5608 5613 5619 5623 5627 5631 5636 5638 5638 5642 5650 5656 5662 5669 5674 5678 5682 5687 5691 5695 5700 5703 5705 5708 5711 5714 5717 5720 5722 5725 5727 5729 5731 5733 5736 5739 5741 5744 5746 5748 5751 5754 5758 5761 5764 5768 5773 5778 5782 5785 5788 5793 5796 5799 5801 5803 5805 5806 5810 5812 5813 5817 5823 5824 5826 5829 5832 5835 5838 5841 5843 5844 5845 5847 5848 5849 5850
5522 5529 5537 5546 5554 5561 5569 5578 5585 5592 5597 5602 5608 5614 5617 5621 5626 5629 5631 5632 5639 5647 5653 5659 5664 5669 5673 5678 5684 5690 5694 5697 5699 5703 5707 5708 5711 5714 5717 5720 5721 5723 5726 5729 5731 5734 5737 5740 5742 5745 5747 5750 5754 5757 5759 5762 5766 5770 5775 5779 5783 5786 5789 5793 5794 5797 5799 5799 5802 5807 5810 5809 5813 5820 5821 5822 5826 5830 5833 5836 5838 5840 5841 5842 5844 5845 5846 5848
5521 5528 5536 5543 5549 5556 5564 5573 5581 5588 5592 5595 5602 5608 5611 5614 5618 5620 5622 5627 5636 5644 5649 5655 5660 5665 5670 5676 5681 5686 5690 5693 5696 5700 5702 5704 5708 5712 5715 5717 5719 5721 5724 5727 5728 5731 5734 5737 5740 5742 5745 5748 5752 5755 5758 5761 5763 5767 5771 5774 5779 5782 5785 5788 5790 5792 5793 5793 5798 5803 5806 5807 5808 5814 5818 5819 5824 5828 5831 5833 5834 5836 5838 5839 5841 5842 5844 5845
5520 5528 5535 5541 5548 5555 5562 5568 5576 5584 5588 5592 5597 5600 5603 5607 5611 5613 5617 5627 5636 5640 5645 5652 5657 5662 5667 5673 5678 5682 5685 5688 5692 5695 5697 5700 5704 5708 5710 5712 5715 5718 5721 5724 5726 5728 5731 5733 5736 5739 5743 5746 5749 5752 5755 5758 5760 5764 5767 5771 5776 5778 5780 5782 5784 5786 5786 5789 5795 5799 5802 5803 5802 5808 5815 5816 5821 5827 5829 5830 5831 5834 5836 5837 5838 5839 5841 5841
5519 5528 5534 5540 5547 5555 5561 5567 5574 5578 5582 5589 5593 5593 5596 5601 5603 5607 5617 5626 5631 5636 5644 5650 5655 5661 5666 5670 5674 5677 5680 5684 5688 5691 5694 5698 5701 5704 5706 5709 5712 5714 5717 5720 5722 5724 5727 5730 5733 5736 5739 5743 5746 5749 5752 5755 5757 5760 5763 5767 5771 5773 5775 5777 5778 5780 5782 5787 5791 5794 5797 5798 5797 5805 5812 5815 5819 5825 5826 5827 5829 5831 5833 5834 5834 5836 5837 5838
5518 5525 5531 5536 5544 5552 5559 5565 5569 5571 5576 5583 5586 5590 5594 5595 5597 5608 5619 5624 5628 5638 5646 5650 5655 5660 5662 5664 5668 5672 5677 5682 5685 5687 5690 5694 5697 5701 5704 5707 5711 5714 5716 5719 5720 5721 5723 5726 5729 5732 5735 5739 5742 5745 5748 5752 5755 5757 5759 5763 5767 5768 5769 5771 5774 5776 5780 5784 5787 5790 5792 5793 5796 5803 5810 5814 5818 5821 5823 5825 5826 5828 5829 5830 5831 5831 5833 5834
5515 5521 5527 5533 5541 5550 5556 5561 5563 5568 5573 5575 5578 5584 5588 5591 5600 5612 5617 5621 5629 5638 5642 5645 5650 5654 5656 5660 5664 5668 5673 5677 5681 5684 5687 5690 5692 5696 5700 5704 5709 5712 5714 5716 5718 5720 5722 5724 5727 5730 5732 5735 5739 5742 5746 5750 5753 5755 5758 5760 5763 5765 5766 5770 5773 5775 5779 5782 5784 5786 5788 5790 5796 5801 5805 5812 5816 5817 5819 5821 5822 5823 5825 5826 5827 5828 5829 5830
5512 5517 5523 5530 5538 5547 5553 5555 5559 5565 5568 5570 5574 5577 5580 5590 5603 5609 5613 5620 5628 5633 5637 5641 5645 5648 5652 5656 5660 5665 5669 5672 5675 5679 5682 5687 5691 5695 5698 5702 5705 5708 5709 5712 5714 5716 5719 5723 5727 5730 5732 5735 5738 5741 5744 5747 5750 5752 5754 5755 5759 5763 5765 5768 5771 5773 5777 5778 5779 5782 5784 5789 5795 5797 5801 5808 5812 5813 5814 5815 5817 5819 5821 5823 5824 5825 5826 5827
5508 5513 5520 5529 5538 5544 5548 5552 5557 5560 5564 5568 5571 5573 5582 5595 5603 5607 5613 5621 5625 5628 5632 5635 5638 5642 5646 5650 5655 5660 5665 5669 5672 5675 5679 5684 5688 5692 5696 5700 5703 5705 5707 5710 5712 5714 5716 5720 5724 5727 5730 5732 5735 5738 5741 5744 5746 5748 5749 5751 5756 5761 5762 5764 5768 5770 5772 5772 5774 5778 5782 5787 5791 5793 5796 5802 5806 5809 5810 5811 5813 5815 5816 5819 5821 5821 5822 5823
5504 5510 5519 5529 5537 5541 5544 5549 5554 5557 5561 5567 5570 5576 5589 5598 5602 5605 5611 5616 5619 5624 5628 5630 5633 5637 5641 5647 5653 5657 5661 5665 5668 5672 5677 5680 5683 5688 5693 5697 5700 5704 5706 5708 5710 5713 5716 5718 5721 5725 5727 5730 5733 5735 5738 5741 5743 5745 5746 5750 5754 5757 5758 5761 5764 5765 5767 5768 5770 5774 5778 5782 5786 5788 5792 5797 5802 5805 5807 5808 5809 5811 5812 5814 5816 5817 5818 5819
5503 5510 5518 5526 5532 5537 5542 5546 5549 5553 5558 5563 5570 5581 5590 5594 5597 5602 5607 5611 5615 5619 5624 5628 5633 5637 5640 5645 5650 5653 5657 5660 5663 5668 5672 5676 5681 5686 5690 5693 5697 5701 5703 5704 5707 5711 5714 5717 5719 5723 5725 5728 5730 5732 5735 5738 5740 5742 5744 5748 5750 5751 5755 5758 5759 5760 5763 5764 5766 5770 5773 5777 5781 5785 5790 5794 5798 5800 5803 5805 5806 5807 5808 5809 5811 5812 5814 5815
5499 5506 5515 5522 5527 5533 5538 5541 5545 5550 5554 5559 5568 5578 5585 5589 5595 5601 5605 5608 5612 5616 5621 5626 5631 5636 5639 5643 5647 5650 5653 5657 5661 5664 5667 5672 5678 5682 5686 5690 5694 5697 5699 5700 5703 5706 5710 5713 5715 5719 5722 5725 5726 5728 5730 5733 5736 5738 5741 5744 5746 5748 5751 5754 5756 5758 5760 5761 5763 5766 5768 5771 5777 5784 5788 5791 5793 5795 5798 5801 5802 5803 5804 5805 5806 5808 5809 5809
5497 5504 5510 5517 5523 5528 5532 5537 5541 5544 5549 5558 5568 5575 5580 5585 5592 5597 5601 5604 5609 5613 5618 5623 5628 5632 5636 5641 5644 5648 5653 5655 5658 5661 5665 5670 5674 5678 5682 5685 5689 5693 5696 5696 5699 5702 5706 5710 5712 5715 5718 5720 5722 5724 5727 5730 5733 5736 5738 5740 5743 5746 5748 5750 5753 5755 5756 5757 5760 5761 5762 5767 5775 5781 5785 5787 5789 5791 5794 5796 5798 5799 5800 5801 5802 5803 5803 5803
5495 5500 5506 5511 5517 5522 5526 5530 5534 5541 5550 5560 5567 5571 5574 5578 5585 5589 5594 5600 5605 5610 5615 5621 5626 5629 5633 5636 5640 5645 5650 5652 5656 5660 5663 5667 5671 5674 5678 5681 5684 5688 5690 5692 5695 5697 5702 5706 5708 5710 5713 5716 5719 5722 5725 5728 5731 5734 5736 5738 5741 5743 5744 5746 5748 5751 5753 5755 5756 5758 5758 5764 5772 5777 5781 5785 5786 5786 5788 5790 5792 5793 5795 5797 5797 5798 5798 5798
5490 5496 5502 5508 5512 5517 5522 5527 5533 5541 5548 5554 5558 5563 5568 5575 5581 5584 5589 5595 5600 5606 5611 5617 5622 5626 5629 5633 5637 5642 5646 5649 5653 5657 5661 5666 5669 5671 5675 5678 5681 5684 5687 5689 5692 5695 5699 5702 5704 5706 5709 5713 5716 5719 5721 5724 5728 5730 5732 5734 5737 5738 5739 5741 5742 5746 5750 5750 5752 5754 5753 5759 5768 5772 5776 5781 5781 5780 5782 5784 5787 5788 5790 5792 5793 5793 5793 5794
5488 5494 5501 5506 5510 5514 5519 5525 5531 5536 5541 5548 5553 5559 5565 5571 5575 5579 5584 5590 5595 5601 5605 5610 5616 5621 5625 5629 5633 5638 5643 5647 5650 5655 5660 5662 5664 5668 5671 5675 5679 5681 5684 5687 5689 5692 5696 5698 5700 5703 5705 5709 5712 5715 5717 5720 5723 5725 5727 5730 5732 5733 5735 5737 5738 5742 5744 5744 5749 5749 5747 5754 5766 5769 5772 5775 5776 5777 5779 5781 5783 5784 5786 5786 5786 5787 5788 5788
5485 5492 5497 5502 5507 5512 5516 5521 5526 5531 5536 5544 5550 5554 5560 5565 5570 5575 5580 5586 5592 5598 5601 5606 5610 5616 5621 5625 5629 5634 5638 5642 5646 5651 5655 5657 5660 5665 5667 5671 5675 5677 5681 5685 5687 5689 5691 5692 5694 5698 5700 5703 5706 5709 5711 5714 5717 5719 5722 5725 5727 5729 5732 5733 5734 5736 5737 5740 5745 5745 5744 5754 5765 5768 5769 5770 5771 5774 5777 5778 5779 5779 5779 5779 5779 5780 5781 5782
5480 5486 5491 5497 5501 5507 5514 5520 5526 5530 5533 5538 5543 5549 5555 5561 5565 5571 5577 5582 5589 5594 5598 5601 5606 5612 5617 5619 5624 5629 5633 5638 5642 5645 5649 5652 5655 5659 5663 5667 5671 5674 5679 5681 5683 5686 5686 5687 5690 5693 5694 5696 5700 5704 5708 5711 5713 5715 5718 5721 5723 5725 5727 5729 5731 5731 5732 5737 5740 5740 5744 5754 5761 5763 5764 5764 5766 5770 5772 5772 5773 5773 5771 5771 5771 5773 5774 5776
5473 5476 5482 5490 5497 5504 5511 5518 5523 5527 5531 5535 5541 5546 5551 5556 5562 5567 5572 5578 5584 5589 5593 5596 5602 5608 5612 5615 5619 5624 5629 5634 5637 5639 5644 5648 5651 5654 5658 5662 5664 5668 5673 5675 5678 5680 5680 5682 5686 5689 5691 5694 5700 5704 5707 5710 5712 5714 5718 5721 5722 5723 5725 5726 5726 5726 5731 5735 5734 5736 5744 5750 5754 5757 5757 5758 5761 5764 5765 5766 5766 5766 5764 5764 5765 5767 5769 5771
5468 5471 5476 5483 5492 5501 5507 5512 5517 5522 5528 5535 5540 5544 5547 5552 5558 5563 5567 5573 5580 5585 5588 5592 5597 5602 5607 5612 5616 5621 5626 5629 5631 5635 5639 5642 5646 5650 5652 5656 5659 5663 5667 5669 5671 5673 5673 5676 5681 5684 5688 5693 5697 5698 5699 5703 5707 5710 5714 5716 5717 5719 5720 5720 5721 5725 5730 5729 5728 5735 5742 5743 5747 5752 5752 5752 5755 5757 5759 5760 5760 5760 5760 5759 5760 5763 5765 5766
5465 5472 5479 5484 5489 5495 5502 5508 5514 5520 5525 5531 5537 5542 5545 5549 5553 5558 5563 5570 5576 5580 5584 5588 5593 5599 5605 5610 5614 5617 5621 5623 5627 5632 5635 5638 5642 5644 5646 5649 5652 5656 5660 5662 5664 5667 5668 5672 5677 5680 5683 5688 5690 5689 5691 5696 5700 5703 5706 5708 5711 5713 5713 5713 5716 5721 5724 5722 5724 5733 5737 5736 5741 5747 5748 5748 5748 5750 5753 5754 5754 5755 5755 5756 5757 5759 5759 5760
5464 5470 5477 5484 5491 5497 5503 5508 5512 5515 5520 5525 5530 5535 5539 5545 5552 5557 5563 5568 5572 5576 5581 5585 5590 5596 5601 5606 5610 5613 5615 5620 5626 5629 5631 5634 5638 5639 5642 5644 5646 5650 5652 5654 5657 5660 5662 5667 5671 5673 5676 5681 5683 5683 5686 5690 5692 5695 5699 5702 5705 5707 5708 5709 5712 5715 5717 5717 5722 5729 5729 5730 5736 5741 5744 5744 5743 5745 5748 5749 5749 5750 5751 5752 5753 5753 5754 5754
5462 5467 5473 5480 5488 5496 5502 5505 5507 5509 5514 5518 5523 5528 5534 5541 5548 5555 5560 5564 5569 5574 5579 5584 5588 5593 5597 5601 5605 5608 5613 5620 5625 5627 5628 5631 5633 5636 5637 5639 5642 5644 5646 5648 5651 5654 5658 5662 5664 5667 5670 5673 5676 5679 5682 5683 5685 5688 5692 5695 5699 5701 5703 5706 5708 5711 5712 5713 5719 5724 5722 5725 5734 5738 5739 5741 5740 5740 5742 5743 5745 5746 5747 5748 5748 5747 5748 5748
5459 5466 5473 5478 5484 5490 5495 5499 5504 5508 5510 5513 5518 5524 5530 5536 5543 5550 5555 5561 5567 5572 5578 5583 5586 5589 5593 5596 5601 5607 5613 5618 5619 5622 5626 5629 5631 5633 5634 5636 5638 5640 5641 5645 5647 5650 5655 5657 5659 5662 5664 5666 5672 5676 5676 5678 5679 5680 5683 5689 5694 5696 5699 5702 5705 5708 5708 5709 5715 5718 5717 5724 5733 5735 5735 5736 5735 5734 5735 5738 5740 5742 5742 5742 5741 5740 5740 5740
5459 5464 5469 5475 5480 5485 5489 5494 5499 5502 5505 5512 5519 5524 5528 5533 5539 5544 5548 5553 5560 5566 5572 5578 5581 5584 5588 5593 5599 5606 5610 5611 5613 5618 5621 5623 5624 5626 5627 5630 5633 5634 5638 5641 5643 5647 5651 5653 5657 5659 5660 5664 5669 5670 5671 5673 5670 5669 5678 5688 5693 5694 5697 5698 5700 5703 5704 5705 5708 5711 5715 5724 5729 5727 5728 5730 5728 5727 5729 5732 5733 5735 5736 5735 5733 5732 5732 5733